Find Starlink 35481

NORAD ID: 66247 Int'l Des: 2025-245 Owner: SPXS Country: US Constellation: starlink operational
LEOCIRCULAR

リアルタイム位置

3D地球を読み込み中...

Starlink 35481について

説明を読み込み中...

次回通過

Passes for default location (London). Set your location on the main map for personalized predictions.

高度履歴

Loading altitude history...

軌道要素

1 66247U 25245P 26105.05433973 .00007530 00000-0 26610-3 0 9994
2 66247 53.1562 115.0156 0001270 75.7410 284.3731 15.30198769 26827
Epoch: Apr 15, 2026 • Age: 9 hours

現在のステータス

高度 494.6 km
速度 7.62 km/s
衛星直下点 -53.30°S, 23.99°E
打ち上げ日 Oct 29, 2025
運用期間 0.4 years
タイプ internet

技術仕様

分類 Payload
質量 575.00 kg
乾燥質量 530.00 kg
総質量 575.00 kg
長さ 0.30 m
直径 4.10 m
スパン 29.00 m
形状 Box + pan
製造者 SPXS
バスタイプ Starlink V2MO
フェーズステータス In Orbit
所有者/国 SPXS/US

Most Searched